Date,Time,Air Temperature,Dewpoint,Windchill,Heat Index,RH,3m Max Wind Speed,3m Mean Wind Speed,3m Wind Direction,Rain,Solar Radiation
,,F,F,F,F,%,MPH,MPH,deg,in,MJ/m^2
2024-03-23,11:00,55.1,28.7,55.1,55.1,36.1,3.8,2.5,177.5,0.0,
2024-03-23,11:05,55.6,29.2,55.6,55.6,36.1,2.8,1.2,177.5,0.0,
2024-03-23,11:10,56.1,27.8,56.1,56.1,33.5,0,0,0,0.0,
2024-03-23,11:15,56.4,27,56.4,56.4,32.2,2.4,0.3,177.4,0.0,
2024-03-23,11:20,56.9,27.3,56.9,56.9,32.1,1.2,0.1,177.4,0.0,
2024-03-23,11:25,56.9,26.9,56.9,56.9,31.5,4.6,1.5,177.5,0.0,
2024-03-23,11:30,57.2,27.2,57.2,57.2,31.5,3,1,177.6,0.0,
2024-03-23,11:35,57.5,27.7,57.5,57.5,31.7,2.1,1.1,177.5,0.0,
2024-03-23,11:40,57.9,27,57.9,57.9,30.4,3.3,0.7,177.4,0.0,
2024-03-23,11:45,58.4,26.6,58.4,58.4,29.4,3.3,0.6,177.4,0.0,
2024-03-23,11:50,58.7,27.5,58.7,58.7,30.2,1.9,0.2,177.4,0.0,
2024-03-23,11:55,59,27,59.0,59,29.3,1.7,0.7,177.4,0.0,
2024-03-23,12:00,59.4,26.5,59.4,59.4,28.4,2.2,0.7,177.4,0.0,
2024-03-23,12:05,59.6,26.7,59.6,59.6,28.3,2.2,0.3,177.4,0.0,
2024-03-23,12:10,59.7,25.9,59.7,59.7,27.3,3.5,1.5,177.3,0.0,
2024-03-23,12:15,59.2,26.6,59.2,59.2,28.6,3.3,1.5,177.4,0.0,
2024-03-23,12:20,59.7,27.4,59.7,59.7,29,2.6,1,177.3,0.0,
2024-03-23,12:25,59.8,26.3,59.8,59.8,27.7,3.7,2,177.3,0.0,
2024-03-23,12:30,59.9,26,59.9,59.9,27.2,4,2,177.3,0.0,
2024-03-23,12:35,60,25.7,60.0,60,26.8,4.4,1.9,177.3,0.0,
2024-03-23,12:40,60,26.5,60.0,60,27.6,4,1.7,177.3,0.0,
2024-03-23,12:45,60.3,25.9,60.3,60.3,26.7,3,1.5,177.3,0.0,
2024-03-23,12:50,60.6,26.1,60.6,60.6,26.7,3.8,1.3,177.3,0.0,
2024-03-23,12:55,60.6,26.3,60.6,60.6,26.8,3.3,1.7,177.3,0.0,
2024-03-23,13:00,61.6,24.5,61.6,61.6,24.1,6.3,2.5,177.4,0.0,
2024-03-23,13:05,61.7,24.3,61.7,61.7,23.8,11.3,5.3,177.5,0.0,
2024-03-23,13:10,62.1,23.4,62.1,62.1,22.6,8.5,4.9,177.6,0.0,
2024-03-23,13:15,62.6,24.5,62.6,62.6,23.3,6.3,4.5,177.5,0.0,
2024-03-23,13:20,62.5,24.5,62.5,62.5,23.3,8.1,4.4,177.4,0.0,
2024-03-23,13:25,62.9,24.2,62.9,62.9,22.7,6.7,3.6,177.4,0.0,
2024-03-23,13:30,63,24,63.0,63,22.5,6.7,4,177.3,0.0,
2024-03-23,13:35,63.4,24.5,63.4,63.4,22.6,6.5,4.9,177.5,0.0,
2024-03-23,13:40,63.6,24.6,63.6,63.6,22.5,8.3,5.2,177.5,0.0,
2024-03-23,13:45,64.1,24.5,64.1,64.1,22.1,8.7,5.6,177.4,0.0,
2024-03-23,13:50,64.1,26.1,64.1,64.1,23.5,6.9,4.5,177.2,0.0,
2024-03-23,13:55,64.5,24.4,64.5,64.5,21.6,6.7,3.5,177.1,0.0,
2024-03-23,14:00,64.8,23.8,64.8,64.8,20.9,8.8,3.4,177.1,0.0,
2024-03-23,14:05,65.5,24.2,65.5,65.5,20.8,7.2,3.6,177,0.0,
2024-03-23,14:10,65.4,22.8,65.4,65.4,19.6,7.1,4.9,177,0.0,
2024-03-23,14:15,65,22.6,65.0,65,19.7,9,5.8,177.2,0.0,
2024-03-23,14:20,65,22.4,65.0,65,19.6,7.2,5.2,177,0.0,
2024-03-23,14:25,64.8,22.6,64.8,64.8,19.9,7.1,5.6,177,0.0,
2024-03-23,14:30,65.1,22.6,65.1,65.1,19.7,8.5,5.6,177,0.0,
2024-03-23,14:35,65.3,22.3,65.3,65.3,19.3,6.5,4,177.1,0.0,
2024-03-23,14:40,65.8,22.7,65.8,65.8,19.3,6.2,4.1,177,0.0,
2024-03-23,14:45,65.5,22.4,65.5,65.5,19.2,7.4,4.9,176.9,0.0,
2024-03-23,14:50,65.3,23.4,65.3,65.3,20.2,8.8,5.1,177.1,0.0,
2024-03-23,14:55,65.3,23,65.3,65.3,19.9,6.5,4,177,0.0,
2024-03-23,15:00,65.8,24,65.8,65.8,20.3,4.7,3.3,177,0.0,
2024-03-23,15:05,65.8,23.5,65.8,65.8,19.9,6.9,4.7,177,0.0,
2024-03-23,15:10,65.8,22.9,65.8,65.8,19.4,7.8,4.6,177,0.0,
2024-03-23,15:15,66,22.5,66.0,66,19.0,9,5.3,177.2,0.0,
2024-03-23,15:20,65.9,22.7,65.9,65.9,19.2,8.7,5.3,177.3,0.0,
2024-03-23,15:25,65.5,22.9,65.5,65.5,19.6,8.3,5.7,177.2,0.0,
2024-03-23,15:30,65.8,22.6,65.8,65.8,19.1,7.8,4.6,177,0.0,
2024-03-23,15:35,66.4,23.3,66.4,66.4,19.4,7.1,4.3,177,0.0,
2024-03-23,15:40,66.3,22.8,66.3,66.3,19.1,8,4.3,177,0.0,
2024-03-23,15:45,66.2,23,66.2,66.2,19.3,9,4.7,176.9,0.0,
2024-03-23,15:50,66,22.7,66.0,66,19.1,8.3,5.5,177.1,0.0,
2024-03-23,15:55,66.2,22,66.2,66.2,18.5,7.2,5.4,177,0.0,
2024-03-23,16:00,66,22.1,66.0,66,18.7,7.6,5.9,177.1,0.0,
2024-03-23,16:05,66.1,22.5,66.1,66.1,18.9,8.3,5.5,177.2,0.0,
2024-03-23,16:10,66.1,22.4,66.1,66.1,18.8,8.7,5.8,177,0.0,
2024-03-23,16:15,66.2,22.5,66.2,66.2,18.8,8.8,5.9,176.9,0.0,
2024-03-23,16:20,66.4,22.7,66.4,66.4,18.8,9.4,6.8,176.9,0.0,
2024-03-23,16:25,66.3,22.3,66.3,66.3,18.6,10.5,6.9,176.9,0.0,
2024-03-23,16:30,66.7,22.6,66.7,66.7,18.6,9.9,7.4,176.9,0.0,
2024-03-23,16:35,67.2,22.8,67.2,67.2,18.4,11.2,7.6,177.1,0.0,
2024-03-23,16:40,67,22.2,67.0,67,18.1,9.2,6.9,176.9,0.0,
2024-03-23,16:45,66.9,22.2,66.9,66.9,18.2,10.3,7,177,0.0,
2024-03-23,16:50,67.4,22.7,67.4,67.4,18.3,9.7,5.7,176.9,0.0,
2024-03-23,16:55,67.4,23.3,67.4,67.4,18.7,8.5,5.8,177.1,0.0,
2024-03-23,17:00,67.5,22.9,67.5,67.5,18.4,8.3,5.6,176.9,0.0,
2024-03-23,17:05,67.5,22.3,67.5,67.5,17.9,10.3,5.5,176.9,0.0,
2024-03-23,17:10,67.4,22.7,67.4,67.4,18.2,9.6,6.1,177,0.0,
2024-03-23,17:15,67.4,22.4,67.4,67.4,18.1,8,5.9,177,0.0,
2024-03-23,17:20,67.1,22.9,67.1,67.1,18.6,8.1,6.1,176.8,0.0,
2024-03-23,17:25,67,23.5,67.0,67,19.1,11.3,5.6,177.1,0.0,
2024-03-23,17:30,66.7,22.5,66.7,66.7,18.5,9,4.7,177,0.0,
2024-03-23,17:35,66.7,23,66.7,66.7,18.9,8.8,6.3,176.9,0.0,
2024-03-23,17:40,66.7,23.1,66.7,66.7,19.0,6.9,4.7,176.9,0.0,
2024-03-23,17:45,66.6,23.4,66.6,66.6,19.3,10.8,5.2,177,0.0,
2024-03-23,17:50,66.6,23.2,66.6,66.6,19.1,5.8,3.7,177,0.0,
2024-03-23,17:55,66.6,22.7,66.6,66.6,18.7,6.9,4.4,177.1,0.0,
2024-03-23,18:00,66.4,23.4,66.4,66.4,19.4,8,4.3,177,0.0,
2024-03-23,18:05,66.2,22.6,66.2,66.2,18.9,3.5,1.5,176.9,0.0,
2024-03-23,18:10,66.1,23.4,66.1,66.1,19.7,1.9,0.6,176.9,0.0,
2024-03-23,18:15,65.9,23.5,65.9,65.9,19.8,3.1,0.7,176.9,0.0,
2024-03-23,18:20,65.9,24.3,65.9,65.9,20.5,6.2,2.2,177,0.0,
2024-03-23,18:25,65.5,23.5,65.5,65.5,20.1,5.5,1.3,176.9,0.0,
2024-03-23,18:30,65.4,23.9,65.4,65.4,20.5,5.3,2.1,176.9,0.0,
2024-03-23,18:35,65.2,23.2,65.2,65.2,20.1,6.3,3.1,176.9,0.0,
2024-03-23,18:40,65.2,22.9,65.2,65.2,19.8,4.9,2.5,176.9,0.0,
2024-03-23,18:45,65,22.6,65.0,65,19.8,4,1.7,176.9,0.0,
2024-03-23,18:50,64.7,23.4,64.7,64.7,20.6,4.4,1.6,176.9,0.0,
2024-03-23,18:55,64.4,23.9,64.4,64.4,21.3,2.1,0.6,176.9,0.0,
2024-03-23,19:00,64.1,24.3,64.1,64.1,21.8,3.3,1.3,176.9,0.0,
2024-03-23,19:05,63.8,23,63.8,63.8,21.0,3.5,0.8,176.9,0.0,
2024-03-23,19:10,63.8,23.9,63.8,63.8,21.7,2.8,1.5,176.9,0.0,
2024-03-23,19:15,63.2,24.1,63.2,63.2,22.4,2.4,0.6,176.9,0.0,
2024-03-23,19:20,62.9,23.9,62.9,62.9,22.4,3.5,0.9,176.9,0.0,
2024-03-23,19:25,62.7,24.3,62.7,62.7,23.0,2.4,0.9,176.9,0.0,
2024-03-23,19:30,62,24.8,62.0,62,24.0,2.8,0.9,176.9,0.0,
2024-03-23,19:35,61.8,23.8,61.8,61.8,23.1,4.2,2.6,177.3,0.0,
2024-03-23,19:40,61.8,23.2,61.8,61.8,22.6,4.7,2.8,177.3,0.0,
2024-03-23,19:45,62.2,23.5,62.2,62.2,22.7,6,3.3,177.3,0.0,
2024-03-23,19:50,62.5,22.8,62.5,62.5,21.7,4.6,2.2,177.3,0.0,
2024-03-23,19:55,62.7,23.3,62.7,62.7,22.0,3.1,1.4,177.3,0.0,
2024-03-23,20:00,62.3,23.5,62.3,62.3,22.6,3.7,1.6,177.3,0.0,
2024-03-23,20:05,62.4,23.4,62.4,62.4,22.3,6.2,3.3,177.3,0.0,
2024-03-23,20:10,62.2,22.5,62.2,62.2,21.6,6.9,4.1,177.4,0.0,
2024-03-23,20:15,62.4,21.2,62.4,62.4,20.3,6.7,4.1,177.4,0.0,
2024-03-23,20:20,62.3,20.2,62.3,62.3,19.6,7.1,4.6,177.5,0.0,
2024-03-23,20:25,62.7,20.6,62.7,62.7,19.6,7.6,4.8,177.4,0.0,
2024-03-23,20:30,62.6,21.1,62.6,62.6,20.1,9,5.3,177.5,0.0,
2024-03-23,20:35,62,21.5,62.0,62,21.0,6.9,5,177.4,0.0,
2024-03-23,20:40,61.7,21.3,61.7,61.7,21.0,9.2,5.9,177.4,0.0,
2024-03-23,20:45,61.7,21.1,61.7,61.7,20.8,9.4,6.2,177.5,0.0,
2024-03-23,20:50,61.5,20.9,61.5,61.5,20.8,9.6,6.2,177.5,0.0,
2024-03-23,20:55,61.6,21.4,61.6,61.6,21.1,7.4,5.6,177.4,0.0,
2024-03-23,21:00,61.1,21.3,61.1,61.1,21.4,6.9,5.3,177.4,0.0,
2024-03-23,21:05,60.7,21.5,60.7,60.7,21.9,7.2,5.4,177.5,0.0,
2024-03-23,21:10,60.2,21.8,60.2,60.2,22.6,7.2,4.7,177.5,0.0,
2024-03-23,21:15,59.9,22.2,59.9,59.9,23.2,4.9,3.1,177.4,0.0,
2024-03-23,21:20,59.3,21.9,59.3,59.3,23.4,5.8,3.9,177.4,0.0,
2024-03-23,21:25,59.1,22.2,59.1,59.1,23.9,6.9,4,177.4,0.0,
2024-03-23,21:30,58.6,21.8,58.6,58.6,23.9,5.3,2.8,177.4,0.0,
2024-03-23,21:35,58.4,22.5,58.4,58.4,24.8,1.9,0.4,177.4,0.0,
2024-03-23,21:40,58,22.4,58.0,58,25.1,3.3,1.3,177.4,0.0,
2024-03-23,21:45,57.2,21.6,57.2,57.2,24.9,2.4,0.5,177.4,0.0,
2024-03-23,21:50,57.3,22.1,57.3,57.3,25.4,2.6,0.7,177.4,0.0,
2024-03-23,21:55,56.5,22,56.5,56.5,26.0,3.8,0.9,177.4,0.0,
2024-03-23,22:00,56.7,21.8,56.7,56.7,25.6,4.7,2.8,177.6,0.0,
2024-03-23,22:05,56.8,21.4,56.8,56.8,25.1,4.7,2.4,177.6,0.0,
2024-03-23,22:10,57,21.9,57.0,57,25.4,3.5,2.4,177.6,0.0,
2024-03-23,22:15,57.3,21.9,57.3,57.3,25.2,6.3,3.5,177.6,0.0,
2024-03-23,22:20,57.2,21.6,57.2,57.2,25.0,4.7,2.9,177.6,0.0,
2024-03-23,22:25,57.1,21.6,57.1,57.1,25.1,5.6,3.7,177.6,0.0,
2024-03-23,22:30,56.9,21.1,56.9,56.9,24.7,4.7,3.2,177.6,0.0,
2024-03-23,22:35,57.1,21.7,57.1,57.1,25.1,4.9,3.4,177.6,0.0,
2024-03-23,22:40,56.5,21.6,56.5,56.5,25.5,3.3,1.6,177.4,0.0,
2024-03-23,22:45,56.3,21.6,56.3,56.3,25.8,4,2.4,177.4,0.0,
2024-03-23,22:50,56,22,56.0,56,26.5,3.8,2.1,177.4,0.0,
2024-03-23,22:55,55.3,22.2,55.3,55.3,27.4,2.6,0.6,177.4,0.0,
2024-03-23,23:00,54.6,23.2,54.6,54.6,29.3,0,0,0,0.0,
2024-03-23,23:05,53.3,23.4,53.3,53.3,30.9,0,0,0,0.0,
2024-03-23,23:10,51.9,23.3,51.9,51.9,32.5,0,0,0,0.0,
2024-03-23,23:15,51.4,23.5,51.4,51.4,33.4,0,0,0,0.0,
2024-03-23,23:20,51.5,22.7,51.5,51.5,32.2,2.1,0.2,177.4,0.0,
2024-03-23,23:25,51.6,22.8,51.6,51.6,32.2,0,0,0,0.0,
2024-03-23,23:30,51.1,23.3,51.1,51.1,33.5,0,0,0,0.0,
2024-03-23,23:35,50.4,23.1,50.4,50.4,34.1,0,0,0,0.0,
2024-03-23,23:40,49.7,24.2,49.7,49.7,36.6,0,0,0,0.0,
2024-03-23,23:45,49.1,24.1,49.1,49.1,37.2,0,0,0,0.0,
2024-03-23,23:50,48.2,24.7,48.2,48.2,39.4,0,0,0,0.0,
2024-03-23,23:55,47.8,23.3,47.8,47.8,37.9,0,0,0,0.0,
2024-03-24,00:00,47.3,23.3,47.3,47.3,38.6,0.8,0,177.5,0.0,
2024-03-24,00:05,47,22.7,47.0,47,38.1,2.1,0.2,177.5,0.0,
2024-03-24,00:10,48.3,22.1,48.3,48.3,35.3,2.4,0.7,177.6,0.0,
2024-03-24,00:15,48.5,23,48.5,48.5,36.4,1.7,0.2,177.6,0.0,
2024-03-24,00:20,49.2,22.7,49.2,49.2,34.9,2.8,0.8,177.6,0.0,
2024-03-24,00:25,50,21.9,50.0,50,32.9,3.7,1.8,177.8,0.0,
2024-03-24,00:30,50.8,22,50.8,50.8,32.0,5.3,2.8,177.8,0.0,
2024-03-24,00:35,51.3,22,51.3,51.3,31.5,5.5,3.5,177.8,0.0,
2024-03-24,00:40,51.5,22,51.5,51.5,31.2,5.6,4.1,177.8,0.0,
2024-03-24,00:45,51.6,22,51.6,51.6,31.1,4.2,3.1,177.8,0.0,
2024-03-24,00:50,51.5,22,51.5,51.5,31.3,4,2.4,177.8,0.0,
2024-03-24,00:55,51.3,21.7,51.3,51.3,31.1,5.5,2.8,177.8,0.0,
2024-03-24,01:00,50.8,21.9,50.8,50.8,31.8,3.5,1,177.8,0.0,
2024-03-24,01:05,50.3,22,50.3,50.3,32.6,3,0.6,177.8,0.0,
2024-03-24,01:10,49.8,21.9,49.8,49.8,33.1,2.6,1.2,177.8,0.0,
2024-03-24,01:15,49.7,22.2,49.7,49.7,33.6,5.8,2.2,177.8,0.0,
2024-03-24,01:20,49.4,22.4,49.4,49.4,34.3,4.2,0.7,177.8,0.0,
2024-03-24,01:25,48.8,23,48.8,48.8,36.1,3,0.7,177.8,0.0,
2024-03-24,01:30,48.6,23,48.6,48.6,36.2,3.1,0.7,177.8,0.0,
2024-03-24,01:35,48.3,23.1,48.3,48.3,36.7,3,0.8,177.8,0.0,
2024-03-24,01:40,49.1,22.9,49.1,49.1,35.3,5.5,2.8,177.9,0.0,
2024-03-24,01:45,50.1,23,50.1,50.1,34.4,5.5,2.5,177.8,0.0,
2024-03-24,01:50,50.4,23.3,50.4,50.4,34.3,4.6,3.6,177.9,0.0,
2024-03-24,01:55,51,23.1,51.0,51,33.3,5.1,3.8,177.9,0.0,
2024-03-24,02:00,51.3,23.7,51.3,51.3,33.7,4.6,2.8,177.8,0.0,
2024-03-24,02:05,51.2,23.3,51.2,51.2,33.4,5.6,3.6,177.9,0.0,
2024-03-24,02:10,52.3,22.2,52.3,52.3,30.6,7.6,4.8,177.9,0.0,
2024-03-24,02:15,53,22.2,53.0,53,29.8,7.6,5.1,177.9,0.0,
2024-03-24,02:20,53.1,22.7,53.1,53.1,30.3,6.3,4.3,177.9,0.0,
2024-03-24,02:25,52.5,22.5,52.5,52.5,30.7,6.7,4.5,177.9,0.0,
2024-03-24,02:30,52.3,22.8,52.3,52.3,31.4,7.1,4.2,177.8,0.0,
2024-03-24,02:35,51.9,23,51.9,51.9,32.1,5.1,3.6,177.9,0.0,
2024-03-24,02:40,51.2,22.9,51.2,51.2,32.7,4.6,2.9,177.9,0.0,
2024-03-24,02:45,50.7,23.1,50.7,50.7,33.7,4.2,2.4,177.9,0.0,
2024-03-24,02:50,49.9,23.1,49.9,49.9,34.6,2.8,1.5,177.9,0.0,
2024-03-24,02:55,49.3,23.2,49.3,49.3,35.6,2.6,0.6,177.9,0.0,
2024-03-24,03:00,48.6,23.2,48.6,48.6,36.6,2.1,0.6,177.9,0.0,
2024-03-24,03:05,47.9,23.4,47.9,47.9,37.8,1.9,0.5,177.9,0.0,
2024-03-24,03:10,46.9,24.2,46.9,46.9,40.6,1.2,0.1,177.9,0.0,
2024-03-24,03:15,45.7,24.4,45.7,45.7,43.0,3.8,0.2,178,0.0,
2024-03-24,03:20,45,23.6,45.0,45,42.6,4.7,1.4,178,0.0,
2024-03-24,03:25,44.7,24,44.7,44.7,43.7,0.8,0,178,0.0,
2024-03-24,03:30,44.4,24.2,44.4,44.4,44.7,0,0,0,0.0,
2024-03-24,03:35,44.1,24,44.1,44.1,44.8,2.2,0.3,178,0.0,
2024-03-24,03:40,44,24.2,44.0,44,45.3,0,0,0,0.0,
2024-03-24,03:45,43.6,24.1,43.6,43.6,46.0,0,0,0,0.0,
2024-03-24,03:50,43.5,24.5,43.5,43.5,46.9,1.3,0.2,178,0.0,
2024-03-24,03:55,43,24.6,43.0,43,47.9,2.4,0.4,178,0.0,
2024-03-24,04:00,43.1,24.2,43.1,43.1,47.0,2.8,1.5,178,0.0,
2024-03-24,04:05,42.7,25.6,42.7,42.7,50.7,2.4,1,178,0.0,
2024-03-24,04:10,42.5,25.1,42.5,42.5,49.9,0,0,0,0.0,
2024-03-24,04:15,42.4,25.6,42.4,42.4,51.3,0,0,0,0.0,
2024-03-24,04:20,42,25.2,42.0,42,51,0,0,0,0.0,
2024-03-24,04:25,41.8,25.9,41.8,41.8,52.9,0,0,0,0.0,
2024-03-24,04:30,41.5,25.8,41.5,41.5,53.3,0,0,0,0.0,
2024-03-24,04:35,41.1,25.1,41.1,41.1,52.7,0,0,0,0.0,
2024-03-24,04:40,40.8,24.8,40.8,40.8,52.7,3.5,0.5,178,0.0,
2024-03-24,04:45,40.8,25,40.8,40.8,53.0,1.5,0.3,177.9,0.0,
2024-03-24,04:50,41.3,25.2,41.3,41.3,52.6,0,0,0,0.0,
2024-03-24,04:55,41.3,24.9,41.3,41.3,51.7,0,0,0,0.0,
2024-03-24,05:00,41.1,25.4,41.1,41.1,53.2,0,0,0,0.0,
2024-03-24,05:05,40.7,25.1,40.7,40.7,53.5,0,0,0,0.0,
2024-03-24,05:10,40.5,25.4,40.5,40.5,54.6,0,0,0,0.0,
2024-03-24,05:15,40.6,25.6,40.6,40.6,54.8,1.9,0.3,178.1,0.0,
2024-03-24,05:20,40.5,25.6,40.5,40.5,55.1,0.8,0,178.1,0.0,
2024-03-24,05:25,40.4,25,40.4,40.4,53.9,1.9,0.3,178.1,0.0,
2024-03-24,05:30,40.1,25.7,40.1,40.1,56.2,1.2,0.2,178.1,0.0,
2024-03-24,05:35,40.2,26.3,40.2,40.2,57.2,0.8,0,178.1,0.0,
2024-03-24,05:40,40.2,25.4,40.2,40.2,55.2,0.8,0,178.1,0.0,
2024-03-24,05:45,40.4,26,40.4,40.4,56.2,0,0,0,0.0,
2024-03-24,05:50,40.4,26.3,40.4,40.4,57.0,1.5,0.1,178.1,0.0,
2024-03-24,05:55,40.9,26.8,40.9,40.9,56.9,1.5,0.3,178.1,0.0,
2024-03-24,06:00,40.7,26.4,40.7,40.7,56.3,0,0,0,0.0,
2024-03-24,06:05,40.9,26.8,40.9,40.9,57.1,0.8,0,178.1,0.0,
2024-03-24,06:10,40.9,27.1,40.9,40.9,57.7,0,0,0,0.0,
2024-03-24,06:15,41,27.6,41.0,41,58.4,0,0,0,0.0,
2024-03-24,06:20,41,27.1,41.0,41,57.5,0,0,0,0.0,
2024-03-24,06:25,41.4,27.7,41.4,41.4,57.9,2.4,0.5,178.1,0.0,
2024-03-24,06:30,41.4,27.8,41.4,41.4,58.3,0,0,0,0.0,
2024-03-24,06:35,41.5,26.8,41.5,41.5,55.6,1.5,0.2,178.1,0.0,
2024-03-24,06:40,41.6,26.7,41.6,41.6,55.1,0.8,0,178,0.0,
2024-03-24,06:45,41.8,27.9,41.8,41.8,57.6,0.8,0,178.1,0.0,
2024-03-24,06:50,42.1,27.2,42.1,42.1,55.3,0,0,0,0.0,
2024-03-24,06:55,42.1,27.2,42.1,42.1,55.3,1.3,0.1,178.2,0.0,
2024-03-24,07:00,42.1,27.2,42.1,42.1,55.5,1.5,0.2,178.2,0.0,
2024-03-24,07:05,42.5,28.1,42.5,42.5,56.6,1.2,0.3,178.2,0.0,
2024-03-24,07:10,42.4,28.3,42.4,42.4,57.0,0,0,0,0.0,
2024-03-24,07:15,42.4,27.6,42.4,42.4,55.7,1.9,0.2,178.2,0.0,
2024-03-24,07:20,42.3,28.6,42.3,42.3,58.1,0.8,0,178.2,0.0,
2024-03-24,07:25,42.1,27.6,42.1,42.1,56.2,0,0,0,0.0,
2024-03-24,07:30,42.7,27,42.7,42.7,53.7,1.5,0.1,178.2,0.0,
2024-03-24,07:35,44.4,25.7,44.4,44.4,47.4,4.2,1.5,178.2,0.0,
2024-03-24,07:40,45.4,26.3,45.4,45.4,46.9,2.2,0.7,178.2,0.0,
2024-03-24,07:45,46,26.5,46.0,46,46.1,3.5,1.9,178.2,0.0,
2024-03-24,07:50,46.4,27.5,46.4,46.4,47.5,3,1.7,178.2,0.0,
2024-03-24,07:55,46.5,27.5,46.5,46.5,47.3,2.8,1.4,178.1,0.0,
2024-03-24,08:00,46.5,27.1,46.5,46.5,46.5,3,1.2,178.1,0.0,
2024-03-24,08:05,46.6,27.1,46.6,46.6,46.4,2.4,1.3,178.2,0.0,
2024-03-24,08:10,47.2,27.2,47.2,47.2,45.4,6,2.4,178.2,0.0,
2024-03-24,08:15,48.5,26.7,48.5,48.5,42.6,7.8,5,178.4,0.0,
2024-03-24,08:20,49.2,26.5,49.2,49.2,41.0,10.8,5.4,178.4,0.0,
2024-03-24,08:25,50.3,25.2,50.3,50.3,37.3,11.3,7.2,178.3,0.0,
2024-03-24,08:30,51.5,24.7,51.5,51.5,35.1,11.7,7.4,178.4,0.0,
2024-03-24,08:35,52.2,24.6,52.2,52.2,33.9,13.9,9.2,178.4,0.0,
2024-03-24,08:40,52.3,23.6,52.3,52.3,32.5,11.7,8.9,178.4,0.0,
2024-03-24,08:45,52.4,24.6,52.4,52.4,33.7,13.3,6.1,178.3,0.0,
2024-03-24,08:50,52.4,24.4,52.4,52.4,33.5,14.6,8.6,178.3,0.0,
2024-03-24,08:55,51.9,24.3,51.9,51.9,33.8,11,7.1,178.2,0.0,
2024-03-24,09:00,51.7,24.9,51.7,51.7,35.0,12.4,7.2,178.2,0.0,
2024-03-24,09:05,51.8,24.7,51.8,51.8,34.6,10.6,6.6,178.2,0.0,
2024-03-24,09:10,52.3,23.9,52.3,52.3,32.9,13.1,7.1,178.1,0.0,
2024-03-24,09:15,52.3,24.2,52.3,52.3,33.2,13.1,8.8,178.2,0.0,
2024-03-24,09:20,52.6,24,52.6,52.6,32.6,12.6,6.9,178,0.0,
2024-03-24,09:25,52.2,24.2,52.2,52.2,33.3,12.2,8.4,178.1,0.0,
2024-03-24,09:30,51.9,24.6,51.9,51.9,34.3,10.6,7.1,178,0.0,
2024-03-24,09:35,51.2,24.1,51.2,51.2,34.6,12.8,8.2,178.1,0.0,
2024-03-24,09:40,51.1,24.5,51.1,51.1,35.1,8,5.9,178,0.0,
2024-03-24,09:45,51,24.2,51.0,51,34.9,10.8,6.5,178,0.0,
2024-03-24,09:50,51,24.7,51.0,51,35.6,10.3,6.7,177.9,0.0,
2024-03-24,09:55,50.4,25.9,50.4,50.4,38.2,17.8,8.9,178.1,0.0,
2024-03-24,10:00,46.9,33.3,46.9,46.9,58.8,19.9,13.7,178.3,0.0,
2024-03-24,10:05,40.1,34.8,40.1,40.1,81.1,19.8,11.6,178.3,0.01,
2024-03-24,10:10,38,34.7,38.0,38,87.9,11.9,7.7,178.3,0.02,
2024-03-24,10:15,37.5,34,37.5,37.5,86.9,10.3,7.1,178.4,0.01,
2024-03-24,10:20,38.2,34.2,38.2,38.2,85.5,14.4,6.2,178.4,0.0,
2024-03-24,10:25,38.8,34.4,38.8,38.8,83.8,9.2,5.7,178.4,0.0,
2024-03-24,10:30,39.5,34.1,39.5,39.5,80.6,11.9,6,178.4,0.0,
2024-03-24,10:35,40.3,33,40.3,40.3,74.9,9.7,6,178.5,0.0,
2024-03-24,10:40,40.7,33.6,40.7,40.7,75.5,9,6.2,178.5,0.0,
2024-03-24,10:45,41,33.9,41.0,41,75.6,7.6,5.2,178.5,0.0,
2024-03-24,10:50,41.6,32.7,41.6,41.6,70.4,6.9,5.5,178.5,0.0,
2024-03-24,10:55,42.1,33.3,42.1,42.1,70.7,9.4,5.5,178.6,0.0,
2024-03-24,11:00,42.6,32.8,42.6,42.6,68.2,6.9,5.3,178.5,0.0,
2024-03-24,11:05,42.8,31.7,42.8,42.8,64.5,7.6,4.9,178.6,0.0,
2024-03-24,11:10,43.1,33.3,43.1,43.1,67.9,6,4.2,178.4,0.0,
2024-03-24,11:15,43,34.5,43.0,43,71.7,5.1,3.4,178.2,0.0,
2024-03-24,11:20,42.8,35.9,42.8,42.8,76.5,5.6,3.3,178.4,0.0,
2024-03-24,11:25,42.9,35.3,42.9,42.9,74.1,5.5,3.8,178.3,0.0,
2024-03-24,11:30,43.3,35.6,43.3,43.3,74.0,6,2.7,178.2,0.0,
2024-03-24,11:35,42.3,35.7,42.3,42.3,77.1,7.6,3.9,178.3,0.0,
2024-03-24,11:40,41.8,36.5,41.8,41.8,81.3,7.1,4.7,178.2,0.0,
2024-03-24,11:45,41.7,35.9,41.7,41.7,79.5,9.4,5.1,178.2,0.0,
2024-03-24,11:50,41.7,35.7,41.7,41.7,79.1,7.2,4,178.2,0.0,
2024-03-24,11:55,42.1,35.3,42.1,42.1,76.6,5.8,4.1,178.3,0.0,
2024-03-24,12:00,42.2,34.9,42.2,42.2,75.3,5.8,4.2,178.3,0.0,
2024-03-24,12:05,42.4,34.8,42.4,42.4,74.3,7.4,5.1,178.2,0.0,
2024-03-24,12:10,42.5,35.8,42.5,42.5,76.9,5.3,3.4,178.2,0.0,
2024-03-24,12:15,42.6,33,42.6,42.6,68.8,7.6,4.1,178.3,0.0,
2024-03-24,12:20,43.3,33.3,43.3,43.3,67.5,4.9,0.9,178.5,0.0,
2024-03-24,12:25,44.6,33.6,44.6,44.6,65.1,6.7,4.4,178.5,0.0,
2024-03-24,12:30,46.3,28.2,46.3,46.3,49.2,6.9,4.3,178.7,0.0,
2024-03-24,12:35,47,28,47.0,47,47.5,9.9,5.8,178.8,0.0,
2024-03-24,12:40,47.5,27,47.5,47.5,44.6,10.5,6.6,178.8,0.0,
2024-03-24,12:45,47.9,26,47.9,47.9,42.2,10.8,6.4,178.8,0.0,
2024-03-24,12:50,47.8,26.5,47.8,47.8,43.2,11.2,6.8,178.8,0.0,
2024-03-24,12:55,48.3,26.2,48.3,48.3,42,13.3,6.9,178.8,0.0,
2024-03-24,13:00,48.7,25.5,48.7,48.7,40.1,10.3,6.3,178.7,0.0,
2024-03-24,13:05,49.3,26.8,49.3,49.3,41.4,9.9,6.4,178.6,0.0,
2024-03-24,13:10,49.2,26,49.2,49.2,40.2,9.7,6.5,178.6,0.0,
2024-03-24,13:15,49.9,25.3,49.9,49.9,38.0,10.1,6.8,178.6,0.0,
2024-03-24,13:20,49.9,24.8,49.9,49.9,37.2,10.3,7.2,178.5,0.0,
2024-03-24,13:25,50.8,25.6,50.8,50.8,37.3,13.1,6.7,178.5,0.0,
2024-03-24,13:30,50.4,24.7,50.4,50.4,36.5,12.8,6.3,178.4,0.0,
2024-03-24,13:35,50.1,23.2,50.1,50.1,34.6,12.6,7.2,178.4,0.0,
2024-03-24,13:40,51.8,22.3,51.8,51.8,31.2,13.1,6.9,178.4,0.0,
2024-03-24,13:45,51.2,23.2,51.2,51.2,33.2,13.9,7.7,178.4,0.0,
2024-03-24,13:50,50.8,22.3,50.8,50.8,32.5,13.5,7.8,178.4,0.0,
2024-03-24,13:55,50.8,23.7,50.8,50.8,34.4,12.4,7.2,178.3,0.0,
2024-03-24,14:00,49,24.5,49.0,49,38.0,11.7,7.2,178.3,0.0,
2024-03-24,14:05,48.6,25.2,48.6,48.6,39.6,11.2,6.9,178.3,0.0,
2024-03-24,14:10,49.2,25.6,49.2,49.2,39.5,8,4.7,178.3,0.0,
2024-03-24,14:15,49.9,26.4,49.9,49.9,39.8,12.1,5.8,178.2,0.0,
2024-03-24,14:20,52.2,19,52.2,52.2,26.9,16.4,6.5,178.3,0.0,
2024-03-24,14:25,53.2,20.3,53.2,53.2,27.4,14,7.3,178.2,0.0,
2024-03-24,14:30,52.9,17.3,52.9,52.9,24.3,14,8.5,178.2,0.0,
2024-03-24,14:35,52.7,17.9,52.7,52.7,25.1,13.9,8.4,178.2,0.0,
2024-03-24,14:40,53.5,14.9,53.5,53.5,21.4,11.2,7.3,178.2,0.0,
2024-03-24,14:45,53.3,22,53.3,53.3,29.2,17.1,8.7,178.2,0.0,
2024-03-24,14:50,53,21.5,53.0,53,28.9,14,9.7,178.3,0.0,
2024-03-24,14:55,51.4,18.5,51.4,51.4,27.1,14.7,8.7,178.2,0.0,
2024-03-24,15:00,52,16.4,52.0,52,24.1,16.5,9.9,178.3,0.0,
2024-03-24,15:05,51.2,14.9,51.2,51.2,23.3,16.9,8.3,178.2,0.0,
2024-03-24,15:10,51.9,16.8,51.9,51.9,24.6,13.7,7.8,178.1,0.0,
2024-03-24,15:15,48.8,25.8,48.0,48.8,40.5,19.9,13.3,178.4,0.0,
2024-03-24,15:20,45.3,29.3,45.3,45.3,53.4,18.7,13.5,178.4,0.0,
2024-03-24,15:25,44.3,27.9,42.7,44.3,52.4,19,10.2,178.2,0.0,
2024-03-24,15:30,44.8,25,43.4,44.8,45.5,20.5,11.2,178.4,0.0,
2024-03-24,15:35,46.8,24.3,46.8,46.8,40.9,16.4,10.3,178.3,0.0,
2024-03-24,15:40,47.3,23.7,47.3,47.3,39.2,19,9.8,178.3,0.0,
2024-03-24,15:45,47.7,20.1,47.7,47.7,33.1,15.6,8.4,178.2,0.0,
2024-03-24,15:50,47.9,20.2,46.7,47.9,33.1,14.6,7.5,178.2,0.0,
2024-03-24,15:55,48.3,21.4,48.3,48.3,34.2,16.9,8.4,178.2,0.0,
2024-03-24,16:00,48.5,21,48.5,48.5,33.5,11.7,6.9,178.1,0.0,
2024-03-24,16:05,48.7,22.7,48.7,48.7,35.7,11,5.5,178.1,0.0,
2024-03-24,16:10,48.5,21.6,48.5,48.5,34.3,10.3,7,178.2,0.0,
2024-03-24,16:15,48.5,21.4,48.5,48.5,34.0,14,5.7,178.1,0.0,
2024-03-24,16:20,49,19.3,48.3,49,30.6,13.7,7,178.1,0.0,
2024-03-24,16:25,49.2,21.2,49.2,49.2,32.9,12.2,6.6,178.1,0.0,
2024-03-24,16:30,49.3,23,48.3,49.3,35.2,17.1,9.6,178.2,0.0,
2024-03-24,16:35,49,23.8,49.0,49,36.9,13.9,8,178.1,0.0,
2024-03-24,16:40,49.3,23.3,49.3,49.3,35.8,9.2,6.2,178.1,0.0,
2024-03-24,16:45,49.9,19.1,49.5,49.9,29.2,13.1,8.5,178.1,0.0,
2024-03-24,16:50,49,18.7,49.0,49,29.7,14.2,9.5,178.2,0.0,
2024-03-24,16:55,48.9,19.7,48.9,48.9,31.1,14.9,8.7,178.1,0.0,
2024-03-24,17:00,48.9,18.8,48.1,48.9,30.0,13.5,8.5,178.1,0.0,
2024-03-24,17:05,48.8,19.5,48.8,48.8,31.1,15.8,9.4,178.2,0.0,
2024-03-24,17:10,49.1,19.6,48.5,49.1,30.9,14.4,7.6,178,0.0,
2024-03-24,17:15,48.8,20.9,48.8,48.8,32.9,14.9,9.7,178.1,0.0,
2024-03-24,17:20,48.5,22,48.5,48.5,35.0,17.8,9.4,178.2,0.0,
2024-03-24,17:25,48,21.3,48.0,48,34.6,17.6,10,178.2,0.0,
2024-03-24,17:30,47.8,22.7,47.1,47.8,37.0,15.8,10.2,178.2,0.0,
2024-03-24,17:35,47.4,21.9,46.3,47.4,36.1,18.9,9.7,178.2,0.0,
2024-03-24,17:40,47.5,21.4,47.5,47.5,35.4,18.5,10.6,178.3,0.0,
2024-03-24,17:45,47.7,21.2,46.9,47.7,34.8,15.1,10,178.3,0.0,
2024-03-24,17:50,47.7,21.8,46.3,47.7,35.8,13.7,7.7,178.1,0.0,
2024-03-24,17:55,47.6,20.7,46.8,47.6,34.2,15.1,9.9,178.2,0.0,
2024-03-24,18:00,47.7,21.6,47.7,47.7,35.3,17.8,11.2,178.2,0.0,
2024-03-24,18:05,47.6,21.8,47.6,47.6,35.9,16.2,11.5,178.3,0.0,
2024-03-24,18:10,47.1,21.6,47.1,47.1,36.2,16,9.7,178.2,0.0,
2024-03-24,18:15,47.3,21.6,46.3,47.3,35.9,16.2,11.1,178.4,0.0,
2024-03-24,18:20,47,21.8,47.0,47,36.7,15.3,10.7,178.3,0.0,
2024-03-24,18:25,47.4,22.6,47.4,47.4,37.3,14.2,7.9,178.2,0.0,
2024-03-24,18:30,47.3,22.5,47.3,47.3,37.3,15.1,7.9,178.2,0.0,
2024-03-24,18:35,47.1,22.6,47.1,47.1,37.8,13.7,7.1,178.2,0.0,
2024-03-24,18:40,47.2,22,47.2,47.2,36.6,15.3,7.4,178.2,0.0,
2024-03-24,18:45,46.8,22,46.8,46.8,37.2,12.8,8,178.2,0.0,
2024-03-24,18:50,46.7,22.5,46.7,46.7,38.1,13.9,8.3,178.2,0.0,
2024-03-24,18:55,46.3,21.9,46.3,46.3,37.6,14,8.3,178.2,0.0,
2024-03-24,19:00,46.4,21.6,46.4,46.4,37.2,16.2,9,178.3,0.0,
2024-03-24,19:05,45.9,21.6,45.9,45.9,37.7,13.1,9,178.3,0.0,
2024-03-24,19:10,45.9,21.3,45.9,45.9,37.3,10.3,7.2,178.2,0.0,
2024-03-24,19:15,45.7,21,45.7,45.7,37.2,17.1,8.5,178.3,0.0,
2024-03-24,19:20,45.8,21.6,45.8,45.8,38.0,11.7,6.5,178.2,0.0,
2024-03-24,19:25,45.5,21.6,45.5,45.5,38.4,8.1,4.9,178.1,0.0,
2024-03-24,19:30,45.2,21.7,45.2,45.2,39.0,10.8,6.7,178.3,0.0,
2024-03-24,19:35,45.3,21.9,45.3,45.3,39.1,10.3,6,178.2,0.0,
2024-03-24,19:40,45.1,21.9,45.1,45.1,39.5,9.4,5.9,178.2,0.0,
2024-03-24,19:45,45,22.4,45.0,45,40.5,8.7,4.5,178.1,0.0,
2024-03-24,19:50,44.9,22.5,44.9,44.9,40.8,8.3,4.2,178.2,0.0,
2024-03-24,19:55,44.8,23.5,44.8,44.8,42.7,8.1,4.6,178.2,0.0,
2024-03-24,20:00,44.6,24.5,44.6,44.6,45.0,9.6,5.4,178.2,0.0,
2024-03-24,20:05,44.2,24.9,44.2,44.2,46.4,10.1,6.8,178.2,0.0,
2024-03-24,20:10,44,24.3,44.0,44,45.5,11.7,6.7,178.2,0.0,
2024-03-24,20:15,44,23.9,44.0,44,44.8,11.3,6.9,178.3,0.0,
2024-03-24,20:20,44,23.7,44.0,44,44.3,12.2,7,178.3,0.0,